HAWK-5B

Last updated on Tue Sep 22 2026 00:03:52 GMT+0000 (Coordinated Universal Time)

1 52756U 22057AA 26264.18241886 .00014524 00000+0 22233-3 0 9999 2 52756 97.6701 68.7011 0005282 77.4066 282.7778 15.54464217241240
UTC large
Height (km)
Speed (km/s)
/
Latitude / Longitude
Inclination (degrees)
Orbital Period (minutes)
Azimuth
Elevation
Range (km)
Doppler Factor

Next 0 passes for location: London (51.5072 / 0.1276)

No passes found over London.
HAWK-5B